This is the latest recevied weather packets stored in our database for station/object KE8GJZ-2. If no packets are shown the sender has not sent any weather packets the latest 10 day(s).
| Time | Temp. | Humidity | Pressure | Rain* | Wind** | Luminosity | Snow |
|---|---|---|---|---|---|---|---|
| 1777812940 | 8.89° C | 68% | 1014.7 hPa | 0 mm | - | 56 W/m² | - |
| 1777812637 | 8.89° C | 68% | 1014.7 hPa | 0 mm | - | 61 W/m² | - |
| 1777812334 | 8.33° C | 71% | 1015 hPa | 0 mm | - | 73 W/m² | - |
| 1777812032 | 8.33° C | 71% | 1014.9 hPa | 0 mm | - | 72 W/m² | - |
| 1777811731 | 7.78° C | 70% | 1014.9 hPa | 0 mm | - | 69 W/m² | - |
| 1777811427 | 7.78° C | 71% | 1014.9 hPa | 0 mm | - | 72 W/m² | - |
| 1777811123 | 7.78° C | 72% | 1014.9 hPa | 0 mm | - | 70 W/m² | - |
| 1777810820 | 7.22° C | 71% | 1014.8 hPa | 0 mm | - | 54 W/m² | - |
| 1777810517 | 7.22° C | 73% | 1014.8 hPa | 0 mm | - | 67 W/m² | - |
| 1777810214 | 7.22° C | 72% | 1014.7 hPa | 0 mm | - | 76 W/m² | - |
| 1777809910 | 6.67° C | 72% | 1014.9 hPa | 0 mm | - | 69 W/m² | - |
| 1777809609 | 6.67° C | 73% | 1014.8 hPa | 0 mm | - | 52 W/m² | - |
| 1777809305 | 6.67° C | 73% | 1015 hPa | 0 mm | - | 46 W/m² | - |
| 1777809003 | 6.67° C | 73% | 1014.8 hPa | 0 mm | - | 38 W/m² | - |
| 1777808700 | 6.67° C | 73% | 1015 hPa | 0 mm | - | 23 W/m² | - |
| 1777808396 | 6.11° C | 74% | 1015 hPa | 0 mm | - | 16 W/m² | - |
| 1777808095 | 6.11° C | 74% | 1015.1 hPa | 0 mm | - | 12 W/m² | - |
| 1777807792 | 6.11° C | 73% | 1015 hPa | 0 mm | - | 12 W/m² | - |
| 1777807490 | 6.67° C | 73% | 1014.9 hPa | 0 mm | - | 15 W/m² | - |
| 1777807187 | 6.11° C | 73% | 1015.1 hPa | 0 mm | - | 25 W/m² | - |
| 1777806884 | 5.56° C | 74% | 1014.8 hPa | 0 mm | - | 26 W/m² | - |
| 1777806580 | 5.56° C | 75% | 1014.9 hPa | 0 mm | - | 25 W/m² | - |
| 1777806276 | 5° C | 78% | 1015 hPa | 0 mm | - | 17 W/m² | - |
| 1777805973 | 5° C | 78% | 1014.8 hPa | 0 mm | - | 13 W/m² | - |
| 1777805670 | 5° C | 78% | 1015 hPa | 0 mm | - | 10 W/m² | - |
* Rain latest hour (hover to see other rain measurements)
** Current wind speed in m/s (hover to see current wind gust speed)